Home > Weather > Costa Mesa > Past weeks

Flag for USA Weather for the Past 2 Weeks in Costa Mesa, California, USA

Now
69 °F

Passing clouds.


Feels Like: 69 °F
Forecast: 57 / 72 °F
Wind: 9 mph from Southwest

Location: John Wayne Airport-Orange County Airport

Current Time: May 2, 2016 at 5:05:56 PM

Latest Report: May 2, 2016 at 3:53 PM


Visibility: 10 mi

Pressure: 29.94 "Hg

Humidity: 61%

Dew Point: 55 °F

Location of Costa MesaLocation

Historic Weather in Costa Mesa — Graph

°F

Costa Mesa Temperature Yesterday

Maximum temperature yesterday: 68 °F (at 1:53 PM)
Minimum temperature yesterday: 57 °F (at 2:53 AM)
Average temperature yesterday: 61 °F

High & Low Weather Summary for the Past Weeks

 TemperatureHumidityPressure
High86 °F (Apr 18, 2:53 PM)93% (Apr 30, 5:53 AM)30.06 "Hg (Apr 30, 5:53 AM)
Low52 °F (Apr 26, 4:53 AM)10% (Apr 18, 2:53 PM)29.75 "Hg (Apr 27, 11:53 PM)
Average64 °F58%29.92 "Hg
* Reported Apr 17 3:53 PM — May 2 3:53 PM, Costa Mesa, Weather by CustomWeather, © 2016

Note: Actual official high and low records may vary slightly from our data, if they occured in-between our weather recording intervals... More about our weather records

Advertising

Costa Mesa Weather History for the Previous 24 Hours

Scroll right to see more
 ConditionsComfort  
Time TempWeatherWind HumidityBarometerVisibility
3:53 PM
Mon, May 2
69 °FSunny.9 mph61%29.94 "Hg10 mi
2:53 PM71 °FPassing clouds.8 mph57%29.96 "Hg10 mi
1:53 PM71 °FScattered clouds.7 mph57%29.98 "Hg9 mi
12:53 PM71 °FScattered clouds.7 mph57%29.99 "Hg8 mi
11:53 AM69 °FScattered clouds.9 mph59%30.01 "Hg9 mi
10:53 AM69 °FScattered clouds.No wind57%30.02 "Hg9 mi
9:53 AM65 °FPassing clouds.5 mph66%30.03 "Hg9 mi
8:53 AM62 °FPassing clouds.5 mph73%30.03 "Hg10 mi
7:53 AM60 °FPassing clouds.No wind75%30.03 "Hg10 mi
6:53 AM58 °FPassing clouds.3 mph78%30.01 "Hg9 mi
5:53 AM57 °FPassing clouds.No wind81%30.00 "Hg10 mi
4:53 AM57 °FClear.No wind81%29.99 "Hg10 mi
3:53 AM57 °FClear.No wind81%29.99 "Hg10 mi
2:53 AM58 °FClear.No wind78%30.00 "Hg10 mi
1:53 AM58 °FClear.3 mph81%30.00 "Hg10 mi
12:53 AM58 °FClear.3 mph81%30.01 "Hg10 mi
11:53 PM
Sun, May 1
59 °FOvercast.3 mph78%30.01 "Hg10 mi
10:58 PM59 °FPassing clouds.3 mph82%30.01 "Hg10 mi
9:53 PM59 °FPassing clouds.6 mph81%30.00 "Hg8 mi
8:53 PM59 °FPassing clouds.7 mph78%29.98 "Hg10 mi
7:53 PM60 °FScattered clouds.7 mph78%29.95 "Hg10 mi
6:53 PM61 °FScattered clouds.7 mph72%29.93 "Hg10 mi
5:53 PM63 °FScattered clouds.9 mph68%29.92 "Hg10 mi
Weather by CustomWeather, © 2016

See weather overviewHow to use our weather pages